When you browse on this site, cookies collect data to enhance your experience and personalize the content and advertising you see.
Visit our Privacy Policy to learn more. By continuing to use the site, you agree to this use of cookies and data.

Previsão horária em Armawir

Hoje, 15 Agosto, Sábado

Tempo Temperatura Precipitação Vento Pressão Humidade
00:00 +22°C° 0.1 mm 3 m/s 685 mmHg 58%
01:00 +22°C° 0 mm 3 m/s 685 mmHg 58%
02:00 +21°C° 0 mm 3 m/s 684 mmHg 58%
03:00 +20°C° 0 mm 3 m/s 684 mmHg 56%
04:00 +20°C° 0 mm 3 m/s 684 mmHg 57%
05:00 +20°C° 0 mm 3 m/s 684 mmHg 57%
06:00 +20°C° 0 mm 3 m/s 685 mmHg 57%
07:00 +22°C° 0 mm 3 m/s 685 mmHg 52%
08:00 +25°C° 0 mm 3 m/s 685 mmHg 47%
09:00 +26°C° 0 mm 3 m/s 685 mmHg 41%
10:00 +28°C° 0 mm 3 m/s 685 mmHg 38%
11:00 +29°C° 0 mm 2 m/s 685 mmHg 35%
12:00 +30°C° 0 mm 2 m/s 685 mmHg 32%
13:00 +31°C° 0 mm 2 m/s 685 mmHg 31%
14:00 +31°C° 0 mm 2 m/s 685 mmHg 30%
15:00 +33°C° 0 mm 3 m/s 685 mmHg 29%
16:00 +32°C° 0 mm 4 m/s 685 mmHg 32%
17:00 +30°C° 0 mm 5 m/s 684 mmHg 34%
18:00 +29°C° 0 mm 6 m/s 684 mmHg 37%
19:00 +28°C° 0 mm 5 m/s 685 mmHg 40%
20:00 +26°C° 0 mm 4 m/s 685 mmHg 43%
21:00 +25°C° 0 mm 3 m/s 685 mmHg 45%
22:00 +24°C° 0 mm 3 m/s 685 mmHg 46%
23:00 +24°C° 0 mm 2 m/s 685 mmHg 46%

Amanhã, 16 Agosto, Domingo

Tempo Temperatura Precipitação Vento Pressão Humidade
00:00 +23°C° 0 mm 2 m/s 686 mmHg 46%
01:00 +21°C° 0 mm 2 m/s 685 mmHg 47%
02:00 +21°C° 0 mm 2 m/s 685 mmHg 49%
03:00 +20°C° 0 mm 2 m/s 685 mmHg 50%
04:00 +19°C° 0 mm 2 m/s 685 mmHg 51%
05:00 +19°C° 0 mm 2 m/s 685 mmHg 52%
06:00 +19°C° 0 mm 2 m/s 685 mmHg 53%
07:00 +21°C° 0 mm 2 m/s 685 mmHg 49%
08:00 +24°C° 0 mm 2 m/s 685 mmHg 45%
09:00 +25°C° 0 mm 1 m/s 685 mmHg 40%
10:00 +27°C° 0 mm 2 m/s 685 mmHg 38%
11:00 +28°C° 0 mm 3 m/s 685 mmHg 36%
12:00 +29°C° 0 mm 3 m/s 685 mmHg 34%
13:00 +30°C° 0 mm 3 m/s 685 mmHg 33%
14:00 +31°C° 0 mm 3 m/s 684 mmHg 32%
15:00 +33°C° 0 mm 4 m/s 684 mmHg 31%
16:00 +32°C° 0.1 mm 4 m/s 684 mmHg 34%
17:00 +30°C° 0.1 mm 4 m/s 684 mmHg 37%
18:00 +29°C° 0.1 mm 4 m/s 684 mmHg 40%
19:00 +27°C° 0.5 mm 3 m/s 684 mmHg 48%
20:00 +25°C° 0.5 mm 3 m/s 684 mmHg 56%
21:00 +23°C° 0.5 mm 2 m/s 684 mmHg 65%
22:00 +21°C° 1.1 mm 2 m/s 684 mmHg 68%
23:00 +21°C° 1.1 mm 2 m/s 684 mmHg 71%

Depois de amanhã, 17 Agosto, Segunda-feira

Tempo Temperatura Precipitação Vento Pressão Humidade
00:00 +20°C° 1.1 mm 2 m/s 684 mmHg 75%
01:00 +21°C° 0.9 mm 1 m/s 684 mmHg 75%
02:00 +21°C° 0.9 mm 1 m/s 684 mmHg 76%
03:00 +21°C° 0.9 mm 1 m/s 684 mmHg 77%
04:00 +21°C° 0.1 mm 1 m/s 684 mmHg 75%
05:00 +21°C° 0.1 mm 1 m/s 684 mmHg 73%
06:00 +21°C° 0.1 mm 1 m/s 684 mmHg 71%
07:00 +22°C° 0 mm 1 m/s 685 mmHg 66%
08:00 +23°C° 0 mm 1 m/s 685 mmHg 62%
09:00 +24°C° 0 mm 1 m/s 685 mmHg 57%
10:00 +26°C° 0 mm 1 m/s 685 mmHg 53%
11:00 +27°C° 0 mm 1 m/s 686 mmHg 48%
12:00 +28°C° 0 mm 1 m/s 686 mmHg 44%
13:00 +29°C° 0 mm 1 m/s 686 mmHg 42%
14:00 +30°C° 0 mm 1 m/s 685 mmHg 39%
15:00 +30°C° 0 mm 2 m/s 685 mmHg 37%
16:00 +30°C° 0 mm 3 m/s 685 mmHg 39%
17:00 +29°C° 0 mm 4 m/s 685 mmHg 41%
18:00 +28°C° 0 mm 5 m/s 686 mmHg 43%
19:00 +26°C° 0.1 mm 4 m/s 686 mmHg 48%
20:00 +25°C° 0.1 mm 3 m/s 686 mmHg 52%
21:00 +23°C° 0.1 mm 2 m/s 686 mmHg 56%
22:00 +23°C° 0 mm 2 m/s 686 mmHg 57%
23:00 +21°C° 0 mm 2 m/s 686 mmHg 59%

18 Agosto, Terça-feira

Tempo Temperatura Precipitação Vento Pressão Humidade
00:00 +20°C° 0 mm 2 m/s 686 mmHg 60%
01:00 +20°C° 0 mm 2 m/s 686 mmHg 61%
02:00 +19°C° 0 mm 2 m/s 686 mmHg 62%
03:00 +19°C° 0 mm 2 m/s 686 mmHg 64%
04:00 +19°C° 0 mm 2 m/s 686 mmHg 64%
05:00 +19°C° 0 mm 2 m/s 686 mmHg 64%
06:00 +19°C° 0 mm 2 m/s 686 mmHg 64%
07:00 +21°C° 0 mm 1 m/s 686 mmHg 59%
08:00 +23°C° 0 mm 1 m/s 686 mmHg 55%
09:00 +25°C° 0 mm 1 m/s 686 mmHg 50%
10:00 +26°C° 0 mm 2 m/s 686 mmHg 46%
11:00 +27°C° 0 mm 2 m/s 686 mmHg 43%
12:00 +28°C° 0 mm 2 m/s 686 mmHg 40%
13:00 +29°C° 0 mm 2 m/s 685 mmHg 38%
14:00 +30°C° 0 mm 2 m/s 685 mmHg 36%
15:00 +31°C° 0 mm 2 m/s 685 mmHg 34%
16:00 +31°C° 0 mm 2 m/s 685 mmHg 35%
17:00 +30°C° 0 mm 2 m/s 685 mmHg 37%
18:00 +30°C° 0 mm 2 m/s 685 mmHg 39%
19:00 +28°C° 0 mm 2 m/s 685 mmHg 44%
20:00 +26°C° 0 mm 3 m/s 685 mmHg 49%
21:00 +24°C° 0 mm 3 m/s 685 mmHg 54%
22:00 +24°C° 0 mm 3 m/s 685 mmHg 56%
23:00 +23°C° 0 mm 2 m/s 685 mmHg 57%

19 Agosto, Quarta-feira

Tempo Temperatura Precipitação Vento Pressão Humidade
00:00 +21°C° 0 mm 2 m/s 685 mmHg 59%
01:00 +21°C° 0 mm 2 m/s 684 mmHg 60%
02:00 +20°C° 0 mm 2 m/s 684 mmHg 62%
03:00 +21°C° 0 mm 1 m/s 684 mmHg 64%
04:00 +21°C° 0 mm 1 m/s 684 mmHg 64%
05:00 +20°C° 0 mm 2 m/s 684 mmHg 64%
06:00 +20°C° 0 mm 2 m/s 684 mmHg 65%
07:00 +22°C° 0 mm 1 m/s 684 mmHg 59%
08:00 +24°C° 0 mm 1 m/s 684 mmHg 53%
09:00 +26°C° 0 mm 1 m/s 685 mmHg 48%
10:00 +27°C° 0 mm 1 m/s 684 mmHg 44%
11:00 +29°C° 0 mm 1 m/s 684 mmHg 41%
12:00 +30°C° 0 mm 1 m/s 684 mmHg 37%
13:00 +31°C° 0.1 mm 1 m/s 684 mmHg 35%
14:00 +32°C° 0.1 mm 1 m/s 684 mmHg 33%
15:00 +34°C° 0.1 mm 2 m/s 684 mmHg 31%
16:00 +32°C° 0 mm 2 m/s 684 mmHg 33%
17:00 +32°C° 0 mm 2 m/s 684 mmHg 35%
18:00 +31°C° 0 mm 2 m/s 684 mmHg 36%
19:00 +29°C° 0.2 mm 2 m/s 684 mmHg 42%
20:00 +27°C° 0.2 mm 3 m/s 685 mmHg 48%
21:00 +25°C° 0.2 mm 3 m/s 685 mmHg 54%
22:00 +24°C° 0.1 mm 2 m/s 685 mmHg 56%
23:00 +23°C° 0.1 mm 2 m/s 685 mmHg 59%

20 Agosto, Quinta-feira

Tempo Temperatura Precipitação Vento Pressão Humidade
00:00 +23°C° 0.1 mm 1 m/s 685 mmHg 62%
01:00 +22°C° 0 mm 1 m/s 685 mmHg 63%
02:00 +22°C° 0 mm 1 m/s 685 mmHg 63%
03:00 +21°C° 0 mm 1 m/s 685 mmHg 64%
04:00 +21°C° 0 mm 1 m/s 685 mmHg 64%
05:00 +21°C° 0 mm 1 m/s 685 mmHg 64%
06:00 +21°C° 0 mm 1 m/s 685 mmHg 64%
07:00 +23°C° 0 mm 1 m/s 685 mmHg 58%
08:00 +25°C° 0 mm 1 m/s 685 mmHg 52%
09:00 +26°C° 0 mm 1 m/s 685 mmHg 45%
10:00 +28°C° 0 mm 2 m/s 685 mmHg 42%
11:00 +29°C° 0 mm 2 m/s 685 mmHg 39%
12:00 +31°C° 0 mm 2 m/s 685 mmHg 35%
13:00 +32°C° 0 mm 2 m/s 685 mmHg 33%
14:00 +34°C° 0 mm 3 m/s 685 mmHg 30%
15:00 +35°C° 0 mm 3 m/s 685 mmHg 28%
16:00 +34°C° 0 mm 3 m/s 684 mmHg 28%
17:00 +34°C° 0 mm 2 m/s 684 mmHg 29%
18:00 +34°C° 0 mm 2 m/s 684 mmHg 29%
19:00 +31°C° 0 mm 2 m/s 684 mmHg 35%
20:00 +29°C° 0 mm 2 m/s 684 mmHg 41%
21:00 +27°C° 0 mm 3 m/s 684 mmHg 48%
22:00 +26°C° 0 mm 2 m/s 684 mmHg 49%
23:00 +25°C° 0 mm 2 m/s 684 mmHg 51%
Mostrar mais